Nashua, NH

9:10 PM EDT on August 24, 2019 (GMT -0400)
Boire

Weather History for KASH - July, 2019

Change the Weather History Date:

Wednesday, July 17, 2019

  Actual Average Record
Temperature  
Mean Temperature 80 °F -  
Max Temperature 89 °F 84 °F 96 °F (1953)
Min Temperature 73 °F 59 °F 42 °F (1966)
Cooling Degree Days 16    
Growing Degree Days 30 (Base 50)    
Moisture  
Dew Point 73 °F    
Average Humidity 88    
Maximum Humidity 100    
Minimum Humidity 63    
Precipitation  
Precipitation 0.28 in - - ()
Sea Level Pressure  
Sea Level Pressure 29.91 in    
Wind  
Wind Speed 1 mph (WNW)    
Max Wind Speed 10 mph    
Max Gust Speed -    
Visibility 9 miles    
Events Rain , Thunderstorm    
Averages and records for this station are not official NWS values.
T = Trace of Precipitation, MM = Missing Value Source: NWS Daily Summary

Daily Weather History Graph

Daily Weather History Graph

Search for Another Location

Airport or City:

Astronomy

Jul. 17, 2019 Rise Set
Actual Time 5:22 AM EDT 8:21 PM EDT
Civil Twilight 4:48 AM EDT 8:54 PM EDT
Nautical Twilight 4:06 AM EDT 9:37 PM EDT
Astronomical Twilight 3:15 AM EDT 10:27 PM EDT
Moon 9:07 PM EDT (7/17) 5:52 AM EDT (7/17)
Length of Visible Light 16h 05m
Length of Day
14h 58m
Waxing Gibbous, 99% of the Moon is Illuminated
Jul 17
Waxing Gibbous
Jul 24
Last Quarter
Jul 31
New
Aug 7
First Quarter
Aug 15
Full

Hourly Weather History & Observations

Time (EDT) Temp. Heat Index Dew Point Humidity Pressure Visibility Wind Dir Wind Speed Gust Speed Precip Events Conditions
12:56 AM 75.0 °F - 69.1 °F 82% 29.95 in 10.0 mi Calm Calm - N/A   Clear
1:56 AM 75.0 °F - 69.1 °F 82% 29.94 in 10.0 mi Calm Calm - N/A   Clear
2:56 AM 73.0 °F - 69.1 °F 87% 29.93 in 10.0 mi Calm Calm - N/A   Clear
3:56 AM 73.9 °F - 70.0 °F 87% 29.92 in 10.0 mi Calm Calm - N/A   Clear
4:56 AM 73.0 °F - 70.0 °F 90% 29.93 in 10.0 mi Calm Calm - N/A   Clear
5:56 AM 73.0 °F - 70.0 °F 90% 29.93 in 10.0 mi Calm Calm - N/A   Clear
6:56 AM 75.9 °F - 70.0 °F 82% 29.94 in 10.0 mi WSW 3.5 mph - N/A   Mostly Cloudy
7:56 AM 75.0 °F - 71.1 °F 87% 29.94 in 10.0 mi Calm Calm - N/A   Overcast
8:56 AM 78.1 °F - 72.0 °F 81% 29.94 in 10.0 mi Calm Calm - N/A   Mostly Cloudy
9:56 AM 78.1 °F - 73.0 °F 84% 29.94 in 10.0 mi Calm Calm - N/A   Mostly Cloudy
10:56 AM 81.0 °F 86.2 °F 73.9 °F 79% 29.93 in 8.0 mi Variable 3.5 mph - N/A   Mostly Cloudy
11:56 AM 82.9 °F 88.0 °F 72.0 °F 69% 29.92 in 10.0 mi West 6.9 mph - N/A   Overcast
12:56 PM 82.9 °F 88.8 °F 73.0 °F 72% 29.91 in 9.0 mi Calm Calm - N/A   Overcast
1:56 PM 88.0 °F 96.5 °F 73.9 °F 63% 29.88 in 10.0 mi Variable 4.6 mph - N/A   Mostly Cloudy
2:56 PM 84.0 °F 91.9 °F 75.0 °F 74% 29.88 in 10.0 mi Calm Calm - N/A   Overcast
3:33 PM 77.0 °F - 75.2 °F 94% 29.88 in 2.0 mi North 10.4 mph - 0.01 in Rain , Thunderstorm Thunderstorms and Rain
3:56 PM 75.9 °F - 75.9 °F 100% 29.88 in 2.0 mi NW 5.8 mph - 0.15 in Rain , Thunderstorm Heavy Thunderstorms and Rain
4:56 PM 75.9 °F - 75.0 °F 97% 29.87 in 10.0 mi Calm Calm - 0.04 in Rain Light Rain
5:56 PM 73.9 °F - 73.9 °F 100% 29.86 in 5.0 mi Calm Calm - 0.03 in Rain Light Rain
6:56 PM 75.0 °F - 75.0 °F 100% 29.90 in 10.0 mi Calm Calm - 0.05 in Rain Light Rain
7:56 PM 73.9 °F - 73.9 °F 100% 29.92 in 7.0 mi Calm Calm - N/A   Overcast
8:56 PM 73.9 °F - 73.9 °F 100% 29.90 in 7.0 mi Calm Calm - N/A   Partly Cloudy
9:56 PM 73.0 °F - 73.0 °F 100% 29.91 in 10.0 mi WNW 4.6 mph - 0.00 in   Clear
10:56 PM 73.0 °F - 73.0 °F 100% 29.93 in 10.0 mi Calm Calm - 0.01 in   Clear
11:56 PM 73.0 °F - 73.0 °F 100% 29.93 in 10.0 mi Calm Calm - N/A   Clear